Time,TemperatureF,DewpointF,PressureIn,WindDirection,WindDirectionDegrees,WindSpeedMPH,WindSpeedGustMPH,Humidity,HourlyPrecipIn,Conditions,Clouds,dailyrainin,SolarRadiationWatts/m^2,SoftwareType,DateUTC
2013-06-06 00:02:00,67.0,64.0,-100.00,NNW,342,10.0,14.0,90,0.00,,,0.01,0.000000,,2013-06-06 05:02:00,
2013-06-06 00:32:00,65.0,64.0,-100.00,NNW,345,11.0,19.0,96,0.00,,,0.01,0.000000,,2013-06-06 05:32:00,
2013-06-06 00:42:00,65.0,64.0,-100.00,NNW,345,11.0,19.0,96,0.00,,,0.01,0.000000,,2013-06-06 05:42:00,
2013-06-06 00:52:00,65.0,64.0,-100.00,NNW,345,11.0,19.0,96,0.00,,,0.01,0.000000,,2013-06-06 05:52:00,
2013-06-06 01:02:00,65.0,64.0,-100.00,NNW,345,11.0,19.0,96,0.00,,,0.01,0.000000,,2013-06-06 06:02:00,
2013-06-06 01:33:00,63.0,62.0,-100.00,NNW,345,11.0,17.0,98,0.00,,,0.01,0.000000,,2013-06-06 06:33:00,
2013-06-06 01:42:00,63.0,62.0,-100.00,NNW,345,11.0,17.0,98,0.00,,,0.01,0.000000,,2013-06-06 06:42:00,
2013-06-06 01:52:00,63.0,62.0,-100.00,NNW,345,11.0,17.0,98,0.00,,,0.01,0.000000,,2013-06-06 06:52:00,
2013-06-06 02:02:00,63.0,62.0,-100.00,NNW,345,11.0,17.0,98,0.00,,,0.01,0.000000,,2013-06-06 07:02:00,
2013-06-06 02:32:00,62.0,61.0,-100.00,NNW,339,9.0,17.0,98,0.00,,,0.01,0.000000,,2013-06-06 07:32:00,
2013-06-06 02:42:00,62.0,61.0,-100.00,NNW,339,9.0,17.0,98,0.00,,,0.01,0.000000,,2013-06-06 07:42:00,
2013-06-06 02:52:00,62.0,61.0,-100.00,NNW,339,9.0,17.0,98,0.00,,,0.01,0.000000,,2013-06-06 07:52:00,
2013-06-06 03:02:00,62.0,61.0,-100.00,NNW,339,9.0,17.0,98,0.00,,,0.01,0.000000,,2013-06-06 08:02:00,
2013-06-06 03:32:00,61.0,61.0,-100.00,NNW,331,11.0,15.0,100,0.00,,,0.01,0.000000,,2013-06-06 08:32:00,
2013-06-06 03:42:00,61.0,61.0,-100.00,NNW,331,11.0,15.0,100,0.00,,,0.01,0.000000,,2013-06-06 08:42:00,
2013-06-06 03:52:00,61.0,61.0,-100.00,NNW,331,11.0,15.0,100,0.00,,,0.01,0.000000,,2013-06-06 08:52:00,
2013-06-06 04:02:00,61.0,61.0,-100.00,NNW,331,11.0,15.0,100,0.00,,,0.01,0.000000,,2013-06-06 09:02:00,
2013-06-06 04:33:00,60.0,60.0,-100.00,NNW,338,10.0,15.0,100,0.00,,,0.01,0.000000,,2013-06-06 09:33:00,
2013-06-06 04:43:00,60.0,60.0,-100.00,NNW,338,10.0,15.0,100,0.00,,,0.01,0.000000,,2013-06-06 09:43:00,
2013-06-06 04:53:00,60.0,60.0,-100.00,NNW,338,10.0,15.0,100,0.00,,,0.01,0.000000,,2013-06-06 09:53:00,
2013-06-06 05:03:00,60.0,60.0,-100.00,NNW,338,10.0,15.0,100,0.00,,,0.01,0.000000,,2013-06-06 10:03:00,
2013-06-06 05:33:00,60.0,60.0,-100.00,NNW,340,10.0,15.0,100,0.00,,,0.01,0.000000,,2013-06-06 10:33:00,
2013-06-06 05:42:00,60.0,60.0,-100.00,NNW,340,10.0,15.0,100,0.00,,,0.01,0.000000,,2013-06-06 10:42:00,
2013-06-06 05:53:00,60.0,60.0,-100.00,NNW,340,10.0,15.0,100,0.00,,,0.01,0.000000,,2013-06-06 10:53:00,
2013-06-06 06:02:00,60.0,60.0,-100.00,NNW,340,10.0,15.0,100,0.00,,,0.01,0.000000,,2013-06-06 11:02:00,
2013-06-06 06:32:00,60.0,59.0,-100.00,NNW,345,12.0,19.0,96,0.00,,,-99.99,2.000000,,2013-06-06 11:32:00,
2013-06-06 06:42:00,60.0,59.0,-100.00,NNW,345,12.0,19.0,96,0.00,,,-99.99,2.000000,,2013-06-06 11:42:00,
2013-06-06 06:52:00,60.0,59.0,-100.00,NNW,345,12.0,19.0,96,0.00,,,-99.99,2.000000,,2013-06-06 11:52:00,
2013-06-06 07:02:00,60.0,59.0,-100.00,NNW,345,12.0,19.0,96,0.00,,,-99.99,2.000000,,2013-06-06 12:02:00,
2013-06-06 07:33:00,61.0,58.0,-100.00,North,351,12.0,19.0,91,0.00,,,0.01,86.000000,,2013-06-06 12:33:00,
2013-06-06 07:43:00,61.0,58.0,-100.00,North,351,12.0,19.0,91,0.00,,,0.01,86.000000,,2013-06-06 12:43:00,
2013-06-06 07:53:00,61.0,58.0,-100.00,North,351,12.0,19.0,91,0.00,,,0.01,86.000000,,2013-06-06 12:53:00,
2013-06-06 08:03:00,61.0,58.0,-100.00,North,351,12.0,19.0,91,0.00,,,0.01,86.000000,,2013-06-06 13:03:00,
2013-06-06 08:33:00,63.0,57.0,-100.00,NNW,344,11.0,18.0,82,0.00,,,0.01,273.000000,,2013-06-06 13:33:00,
2013-06-06 08:43:00,63.0,57.0,-100.00,NNW,344,11.0,18.0,82,0.00,,,0.01,273.000000,,2013-06-06 13:43:00,
2013-06-06 08:53:00,63.0,57.0,-100.00,NNW,344,11.0,18.0,82,0.00,,,0.01,273.000000,,2013-06-06 13:53:00,
2013-06-06 09:03:00,63.0,57.0,-100.00,NNW,344,11.0,18.0,82,0.00,,,0.01,273.000000,,2013-06-06 14:03:00,
2013-06-06 09:33:00,65.0,59.0,-100.00,North,8,8.0,19.0,82,0.00,,,0.01,454.000000,,2013-06-06 14:33:00,
2013-06-06 09:43:00,65.0,59.0,-100.00,North,8,8.0,19.0,82,0.00,,,0.01,454.000000,,2013-06-06 14:43:00,
2013-06-06 09:53:00,65.0,59.0,-100.00,North,8,8.0,19.0,82,0.00,,,0.01,454.000000,,2013-06-06 14:53:00,
2013-06-06 10:03:00,65.0,59.0,-100.00,North,8,8.0,19.0,82,0.00,,,0.01,454.000000,,2013-06-06 15:03:00,
2013-06-06 11:34:00,69.0,60.0,-100.00,North,6,7.0,12.0,72,-99.99,,,0.01,743.000000,,2013-06-06 16:34:00,
2013-06-06 11:44:00,69.0,60.0,-100.00,North,6,7.0,12.0,72,-99.99,,,0.01,743.000000,,2013-06-06 16:44:00,
2013-06-06 11:53:00,69.0,60.0,-100.00,North,6,7.0,12.0,72,-99.99,,,0.01,743.000000,,2013-06-06 16:53:00,
2013-06-06 12:03:00,69.0,60.0,-100.00,North,6,7.0,12.0,72,-99.99,,,0.01,743.000000,,2013-06-06 17:03:00,
2013-06-06 12:33:00,71.0,59.0,-100.00,East,87,6.0,11.0,65,0.00,,,0.01,959.000000,,2013-06-06 17:33:00,
2013-06-06 12:43:00,71.0,59.0,-100.00,East,87,6.0,11.0,65,0.00,,,0.01,959.000000,,2013-06-06 17:43:00,
2013-06-06 12:53:00,71.0,59.0,-100.00,East,87,6.0,11.0,65,0.00,,,0.01,959.000000,,2013-06-06 17:53:00,
2013-06-06 13:03:00,71.0,59.0,-100.00,East,87,6.0,11.0,65,0.00,,,0.01,959.000000,,2013-06-06 18:03:00,
2013-06-06 13:33:00,71.0,59.0,-100.00,WSW,244,4.0,8.0,65,0.00,,,0.00,531.000000,,2013-06-06 18:33:00,
2013-06-06 13:43:00,71.0,59.0,-100.00,WSW,244,4.0,8.0,65,0.00,,,0.00,531.000000,,2013-06-06 18:43:00,
2013-06-06 13:53:00,71.0,59.0,-100.00,WSW,244,4.0,8.0,65,0.00,,,0.00,531.000000,,2013-06-06 18:53:00,
2013-06-06 14:03:00,71.0,59.0,-100.00,WSW,244,4.0,8.0,65,0.00,,,0.00,531.000000,,2013-06-06 19:03:00,
2013-06-06 14:43:00,72.0,61.0,-100.00,NNW,329,6.0,12.0,68,0.00,,,0.00,725.000000,,2013-06-06 19:43:00,
2013-06-06 14:53:00,72.0,61.0,-100.00,NNW,329,6.0,12.0,68,0.00,,,0.00,725.000000,,2013-06-06 19:53:00,
2013-06-06 15:03:00,72.0,61.0,-100.00,NNW,329,6.0,12.0,68,0.00,,,0.00,725.000000,,2013-06-06 20:03:00,
2013-06-06 15:33:00,73.0,62.0,-100.00,North,0,5.0,12.0,69,0.00,,,0.00,564.000000,,2013-06-06 20:33:00,
2013-06-06 15:43:00,73.0,62.0,-100.00,North,0,5.0,12.0,69,0.00,,,0.00,564.000000,,2013-06-06 20:43:00,
2013-06-06 15:53:00,73.0,62.0,-100.00,North,0,5.0,12.0,69,0.00,,,0.00,564.000000,,2013-06-06 20:53:00,
2013-06-06 16:03:00,73.0,62.0,-100.00,North,0,5.0,12.0,69,0.00,,,0.00,564.000000,,2013-06-06 21:03:00,
2013-06-06 16:33:00,71.0,61.0,-100.00,NNW,332,7.0,12.0,70,0.00,,,0.00,360.000000,,2013-06-06 21:33:00,
2013-06-06 16:44:00,71.0,61.0,-100.00,NNW,332,7.0,12.0,70,0.00,,,0.00,360.000000,,2013-06-06 21:44:00,
2013-06-06 16:53:00,71.0,61.0,-100.00,NNW,332,7.0,12.0,70,0.00,,,0.00,360.000000,,2013-06-06 21:53:00,
2013-06-06 17:03:00,71.0,61.0,-100.00,NNW,332,7.0,12.0,70,0.00,,,0.00,360.000000,,2013-06-06 22:03:00,
2013-06-06 17:33:00,69.0,61.0,-100.00,NNW,345,10.0,17.0,75,0.00,,,0.00,362.000000,,2013-06-06 22:33:00,
2013-06-06 17:43:00,69.0,61.0,-100.00,NNW,345,10.0,17.0,75,0.00,,,0.00,362.000000,,2013-06-06 22:43:00,
2013-06-06 17:53:00,69.0,61.0,-100.00,NNW,345,10.0,17.0,75,0.00,,,0.00,362.000000,,2013-06-06 22:53:00,
2013-06-06 18:02:00,69.0,61.0,-100.00,NNW,345,10.0,17.0,75,0.00,,,0.00,362.000000,,2013-06-06 23:02:00,
2013-06-06 18:33:00,67.0,61.0,-100.00,NNW,343,9.0,16.0,80,0.00,,,0.00,257.000000,,2013-06-06 23:33:00,
2013-06-06 18:43:00,67.0,61.0,-100.00,NNW,343,9.0,16.0,80,0.00,,,0.00,257.000000,,2013-06-06 23:43:00,
2013-06-06 18:52:00,67.0,61.0,-100.00,NNW,343,9.0,16.0,80,0.00,,,0.00,257.000000,,2013-06-06 23:52:00,
2013-06-06 19:02:00,67.0,61.0,-100.00,NNW,343,9.0,16.0,80,0.00,,,0.00,257.000000,,2013-06-07 00:02:00,
2013-06-06 19:32:00,66.0,60.0,-100.00,NNW,340,12.0,19.0,81,0.00,,,0.00,147.000000,,2013-06-07 00:32:00,
2013-06-06 19:42:00,66.0,60.0,-100.00,NNW,340,12.0,19.0,81,0.00,,,0.00,147.000000,,2013-06-07 00:42:00,
2013-06-06 19:52:00,66.0,60.0,-100.00,NNW,340,12.0,19.0,81,0.00,,,0.00,147.000000,,2013-06-07 00:52:00,
2013-06-06 20:02:00,66.0,60.0,-100.00,NNW,340,12.0,19.0,81,0.00,,,0.00,147.000000,,2013-06-07 01:02:00,
2013-06-06 20:33:00,65.0,61.0,-100.00,North,349,10.0,17.0,86,0.00,,,0.00,66.000000,,2013-06-07 01:33:00,
2013-06-06 20:42:00,65.0,61.0,-100.00,North,349,10.0,17.0,86,0.00,,,0.00,66.000000,,2013-06-07 01:42:00,
2013-06-06 20:52:00,65.0,61.0,-100.00,North,349,10.0,17.0,86,0.00,,,0.00,66.000000,,2013-06-07 01:52:00,
2013-06-06 21:02:00,65.0,61.0,-100.00,North,349,10.0,17.0,86,0.00,,,0.00,66.000000,,2013-06-07 02:02:00,
2013-06-06 21:32:00,63.0,58.0,-100.00,North,350,9.0,14.0,85,0.00,,,0.00,6.000000,,2013-06-07 02:32:00,
2013-06-06 21:42:00,63.0,58.0,-100.00,North,350,9.0,14.0,85,0.00,,,0.00,6.000000,,2013-06-07 02:42:00,
2013-06-06 21:52:00,63.0,58.0,-100.00,North,350,9.0,14.0,85,0.00,,,0.00,6.000000,,2013-06-07 02:52:00,
2013-06-06 22:02:00,63.0,58.0,-100.00,North,350,9.0,14.0,85,0.00,,,0.00,6.000000,,2013-06-07 03:02:00,
2013-06-06 22:33:00,63.0,59.0,-100.00,North,359,10.0,15.0,87,0.00,,,0.00,0.000000,,2013-06-07 03:33:00,
2013-06-06 22:44:00,63.0,59.0,-100.00,North,359,10.0,15.0,87,0.00,,,0.00,0.000000,,2013-06-07 03:44:00,
2013-06-06 22:53:00,63.0,59.0,-100.00,North,359,10.0,15.0,87,0.00,,,0.00,0.000000,,2013-06-07 03:53:00,
2013-06-06 23:03:00,63.0,59.0,-100.00,North,359,10.0,15.0,87,0.00,,,0.00,0.000000,,2013-06-07 04:03:00,
2013-06-06 23:33:00,62.0,58.0,-100.00,North,357,8.0,14.0,87,0.00,,,0.00,0.000000,,2013-06-07 04:33:00,
2013-06-06 23:42:00,62.0,58.0,-100.00,North,357,8.0,14.0,87,0.00,,,0.00,0.000000,,2013-06-07 04:42:00,
2013-06-06 23:53:00,62.0,58.0,-100.00,North,357,8.0,14.0,87,0.00,,,0.00,0.000000,,2013-06-07 04:53:00,